Regional Weather Roundup
Issued by NWS Pendleton, OR

Home | Current Version | Previous Version | Text Only | Print | Product List | Glossary On
Versions: 1 2 3 4 5 6 7 8 9 10 11 12 13 14 15 16 17 18 19 20 21 22 23 24 25 26 27 28 29 30 31 32 33 34 35 36 37 38 39 40 41 42 43 44 45 46 47 48 49 50
000
ASUS46 KPDT 251904
RWRPDT
PENDLETON REGIONAL WEATHER ROUNDUP
NATIONAL WEATHER SERVICE PENDLETON OREGON
1200 PM PDT WED MAY 25 2016

NOTE: FAIR INDICATES FEW OR NO CLOUDS BELOW 12,000 FEET WITH NO
SIGNIFICANT WEATHER AND/OR OBSTRUCTIONS TO VISIBILITY.

# INDICATES UNOFFICIAL STATION AND DATA

WAZ520-252010-
EAST SLOPES OF WASHINGTON CASCADES

CITY            SKY/WX      TMP DP  RH  WIND    PRES   REMARKS
#CLE ELUM HS    N/A         60  45  58  W8      30.01R
#CLE ELUM 2NW   N/A         58  44  60  SW5     N/A
#GLENWOOD       N/A         64  49  58  SW6     30.03S
#MANASTASH CYN  N/A         62  44  52  N2      30.00S
#NELSON 3SW     N/A         59  44  57  CALM    30.21R
#NILE           N/A         62  44  52  W6      29.30S
#TEANAWAY 4NE   N/A         63  51  65  SW9     N/A
#TROUT LAKE 1NE N/A         60  47  62  W9      30.05R
#TROUT LAKE 1E  N/A         62  48  60  CALM    30.03S
$$

WAZ521-252010-
SIMCOE HIGHLANDS

CITY            SKY/WX      TMP DP  RH  WIND    PRES   REMARKS
#CENTERVILLE 1SWN/A         62  47  58  W15     30.00R
#GOLDENDALE 1NE N/A         64  36  35  SW6     N/A
#GOLDENDALE 4W  N/A         64  53  67  SW17    30.08F
#GOODNOE HILLS  N/A         68  46  45  W20     29.94F
#LYLE 6NE       N/A         60  50  69  SW13    30.02S
$$

WAZ026-252010-
KITTITAS VALLEY

CITY            SKY/WX      TMP DP  RH  WIND    PRES   REMARKS
ELLENSBURG AP   SUNNY       69  46  44  NW21G30 30.00F
#ELLENSBURG CWU N/A         68  45  44  N14     29.91S
#ELLENSBURG 3NE N/A         65  48  54  N8      30.01S
#ELLENSBURG     N/A         68  46  45  N8      N/A
#ELLENSBURG 1E  N/A         67  N/A N/A NW2     N/A
#ELLENSBURG 13S N/A         72  42  34  W5      N/A
#KITTITAS 4N    N/A         65  47  52  SW13    30.05S
#KITTITAS 3S    N/A         67  49  52  NW7     29.95S
#THORP 6N       N/A         58  45  62  W22G33  30.01R
$$

WAZ027-252010-
YAKIMA VALLEY

CITY            SKY/WX      TMP DP  RH  WIND    PRES   REMARKS
SUNNYSIDE AP    SUNNY       70  45  41  CALM    30.01S
YAKIMA AIRPORT  SUNNY       73  43  34  CALM    30.01S
YAKIMA-VAGABOND SUNNY       70  41  35  W6      29.99S
#DONALD 2NE     N/A         76   6   7  SE1     28.86R
#GRANDVIEW      N/A         70  47  44  S1      30.00F
#MABTON         N/A         70  50  49  VRB1    30.00F
#NACHES 2SW     N/A         67  48  50  W9      30.03R
#TERRACE HTS    N/A         72  47  41  NW1     29.94S
#TOPPENISH      N/A         70  46  42  CALM    29.91S
#WEST VALLEY    N/A         71  45  39  N1      29.96S
#W YAKIMA       N/A         71  47  42  W1      29.97F
#WHITE SWAN 5E  N/A         69  50  51  N1      29.99S
#WILEY CITY 3W  N/A         73  41  31  CALM    29.98S
$$

WAZ028-252010-
LOWER COLUMBIA BASIN...WASHINGTON

CITY            SKY/WX      TMP DP  RH  WIND    PRES   REMARKS
PASCO           SUNNY       73  46  38  S10     30.01F
PROSSER AWOS    N/A         72  46  39  W3      30.03F
RICHLAND AWOS   SUNNY       76  46  34  S8      30.01S
#BASIN CITY 5SW N/A         71  51  49  SE2     29.97S
#BENTON CITY    N/A         72  48  43  SW7     29.90F
#CONNELL 5N     N/A         70  48  46  SW5     29.98F
#CONNELL 5NW    N/A         69  49  49  SW5     29.95F
#ELTOPIA 6NW    N/A         68  51  55  S1      28.98F
#KAHLOTUS       N/A         67  47  49  W12     29.98S
#KENNEWICK 3S   N/A         71  50  47  N3      30.00F
#PATERSON       N/A         70  48  46  W12     29.99F
#SAGEMOOR 2W    N/A         68  51  55  SW6     29.85S
#TOUCHET 2S     N/A         71  54  55  W5      29.98S
#WEST PASCO     N/A         74  52  46  S2      30.06F
$$

WAZ029-252010-
FOOTHILLS OF THE BLUES...WASHINGTON

CITY            SKY/WX      TMP DP  RH  WIND    PRES   REMARKS
WALLA WALLA AP  MOSUNNY     69  46  44  SW13    30.04S
#CLYDE 6NW      N/A         67  47  49  W8      29.99S
#DAYTON SCHOOL  N/A         66  45  47  S6      30.04S
#LOWDEN 2SE     N/A         71  50  47  W8      29.99S
#PLEASANT VIEW 1N/A         68  49  51  S10     30.03S
#PRESCOTT       N/A         69  50  51  W3      30.00F
#SUDBURY        N/A         62  N/A N/A CALM    N/A
#WHITMAN COLLEGEN/A         67  48  50  SW3     30.06S
#WAITSBURG 8N   N/A         68  22  17  S16     29.88S
#WALLA WALLA 5E N/A         68  53  59  W8      N/A
#WALLA WALLA U  N/A         70  49  47  S1      30.00F
#WHITMAN MISSIONN/A         70  52  53  NW7     30.01F
$$

WAZ030-252010-
BLUE MOUNTAINS...WASHINGTON

CITY            SKY/WX      TMP DP  RH  WIND    PRES   REMARKS
#DIXIE 5SE      N/A         59  48  67  SW12    30.01R
$$

ORZ009-041-WAZ024-252010-
COLUMBIA RIVER GORGE

CITY            SKY/WX      TMP DP  RH  WIND    PRES   REMARKS
HOOD RIVER AP   PTCLDY      63  48  58  W10     30.11S
THE DALLES AP   SUNNY       71  44  38  NW24G35 30.06S
#ARLINGTON AIRPON/A         69  46  44  W17     30.02S
#CELILO DOT     N/A         70  46  42  W10     N/A
#LYLE           N/A         63  49  60  W17G31  30.09S
#MARYHILL 2W    N/A         64  48  56  SW13    N/A
#MOSIER 1S      N/A         64  36  35  NW8     30.06S
#MURDOCK        N/A         65  49  56  W18G26  30.03R
#RUFUS DOT      N/A         69  47  45  W17     N/A
#SMITHIVILLE    N/A         68  47  47  N20G30  30.02F

$$

ORZ510-252010-
NORTH CENTRAL OREGON

CITY            SKY/WX      TMP DP  RH  WIND    PRES   REMARKS
#ANTELOPE       N/A         60  43  53  W9      29.92S
#CHENOWITH 1W   N/A         59  45  60  W30     N/A
#COW CYN RST AREN/A         59  N/A N/A SW8     N/A
#DUFUR 9E       N/A         58  45  62  N20G26  30.10R
#GRASS VALLEY   N/A         64  44  48  NW2     N/A
#GRASS VALLEY 1SN/A         62  48  60  NW7     30.02S
#KENT DOT       N/A         62  35  36  N9      N/A
#MAUPIN SCHOOL  N/A         68  46  45  W6      30.08F
#MORO SCHOOL    N/A         62  52  70  NW10    30.08R
#SHANIKO 5WSW   N/A         57  34  42  SW14    N/A
#SHANIKO 4NW    N/A         56  -52  1  W8      30.09S
#TYGH VALLEY 2NEN/A         67  47  49  S1      30.04S
#WAPANITIA AIRPON/A         64  44  48  W9      30.06S
#WASCO DOT      N/A         65  42  43  SW14    N/A
#WASCO 5NE      N/A         64  46  52  SW8     30.03S
$$

ORZ511-252010-
CENTRAL OREGON

CITY            SKY/WX      TMP DP  RH  WIND    PRES   REMARKS
BEND AIRPORT    MOCLDY      57  39  51  VRB7    30.10S
MADRAS AIRPORT  MOCLDY      68  46  45  N3      30.12S
PRINEVILLE AP   CLOUDY      61  39  44  NW9     30.10S
REDMOND AIRPORT CLOUDY      62  40  44  NW6     30.10S
#ASHWOOD SCHOOL N/A         61  43  51  NW10    30.04F
#BEND 1SW       N/A         58  43  57  E3      N/A
#BEND-AWBREY    N/A         58  43  57  N1      30.06S
#BEND-KIM LN    N/A         60  45  58  N1      30.09S
#CULVER         N/A         61  42  50  CALM    30.02S
#CULVER 8W      N/A         59  38  45  CALM    30.09R
#LAKE BILLY CHINN/A         62  N/A N/A NW8     30.14F
#MADRAS 4S      N/A         61  15  16  CALM    30.15S
#POWELL BUTTE 3EN/A         57  42  57  NW3     N/A
#POWELL BUTTE   N/A         62  45  54  N2      29.97S
#PRINEVILLE 3N  N/A         58  44  60  W2      30.04S
#WARM SPRINGS   N/A         65  44  46  CALM    30.05S

$$


ORZ509-252010-
EAST SLOPES OF OREGON CASCADES

CITY            SKY/WX      TMP DP  RH  WIND    PRES   REMARKS
SISTERS AWOS    N/A         59  41  51  W13G25  30.08S
#BLUE BOX PASS  N/A         46  N/A N/A W1      N/A
#CAMP SHERMAN   N/A         59  41  51  S1      30.14S
#LA PINE DOT    N/A         58  31  36  W8      N/A
#LA PINE 4NW    N/A         54  40  59  NW1     30.09S
#LAVA BUTTE DOT N/A         53  34  48  CALM    N/A
#SISTERS AIRPOR N/A         58  47  67  VRB9    30.17S
#SISTERS ODOT   N/A         58  N/A N/A S10     N/A
#SUNRIVER       N/A         58  42  55  NW1     30.07S
#TUMALO 3W      N/A         56  41  57  N6      29.93S
#WANOGA BUTTE D N/A         46  36  68  E6      N/A

$$

ORZ044-252010-
LOWER COLUMBIA BASIN...OREGON

CITY            SKY/WX      TMP DP  RH  WIND    PRES   REMARKS
HERMISTON       SUNNY       73  44  35  SW9     30.03S
#BOARDMAN SCHOOLN/A         71  45  39  SW8     30.01F
#BOARDMAN 8SW   N/A         70  49  47  W13     30.01
#ECHO 8SW       N/A         70  47  44  W8      30.03F
#I-84 EX 198 DOTN/A         67  45  45  E12     N/A
#UMATILLA SCHOOLN/A         73  54  51  W6      30.03S
#UMATILLA       N/A         71  45  39  SW5     29.94F
$$

ORZ507-252010-
NORTHERN FOOTHILLS OF THE BLUES

CITY            SKY/WX      TMP DP  RH  WIND    PRES   REMARKS
PENDLETON AIRPT MOSUNNY     70  42  36  W9      30.04S
#ADAMS 3WNW     N/A         67  46  47  W12     30.02S
#ATHENA         N/A         65  46  50  S7      30.04S
#CAYUSE         N/A         65  46  50  W7      30.01S
#HELIX SCHOOL   N/A         66  46  48  W6      30.02R
#HELIX 3N       N/A         64  47  54  SW14    30.02S
#HELIX 6SW      N/A         65  45  48  CALM    30.03F
#HOLDMAN 5SE    N/A         67  49  52  W7      30.03S
#HOLDMAN 6E     N/A         67  48  50  VRB7    29.83S
#M-F GROVE ELEM N/A         70  43  38  SW8     30.01F
#M-FREEWATER 5SEN/A         68  48  49  SW7     30.03S
#PENDLETON DNTN N/A         69  44  40  W5      30.07R
#PDT AQUATIC CTRN/A         66  46  48  SW10    30.05S
#PDT SUNRIDGE   N/A         69  47  45  W7      30.05S
#PENDLETON 7NW  N/A         70  50  49  SW7     32.27S
#PILOT ROCK 1S  N/A         68  46  45  W1      30.05S
#PILOT ROCK     N/A         70  50  49  SW2     30.06F
#TUTUILLA       N/A         70  48  46  CALM    30.03F
#UMAPINE 2E     N/A         71  50  47  W2      30.00S
#WESTON SCHOOL  N/A         64  43  46  N7      29.95S

$$

ORZ508-252010-
SOUTHERN FOOTHILLS OF THE BLUES

CITY            SKY/WX      TMP DP  RH  WIND    PRES   REMARKS
LEXINGTON       PTCLDY      70  43  38  SW15    30.08F
#AJAX           N/A         65  41  41  SE9     27.81S
#CONDON SCHOOL  N/A         60  44  55  W7      30.03S
#CONDON 5W      N/A         58  40  51  W8      30.06S
#FOSSIL SCHOOL  N/A         61  43  51  CALM    30.03S
#HEPPNER EOC    N/A         64  43  46  N7      29.96S
#HEPPNER 4NE    N/A         62  45  54  SW3     30.02F
#LEXINGTON 2SE  N/A         70  45  41  W6      30.01S
#OLEX 4N        N/A         66  46  48  W16G29  30.03
#RUGGS 5NE      N/A         66  43  43  SW2     30.23S
#RUGGS 2SW      N/A         62  42  48  W5      30.05F

$$

ORZ502-503-252010-
BLUE MOUNTAINS

CITY            SKY/WX      TMP DP  RH  WIND    PRES   REMARKS
MEACHAM         MOCLDY      58  39  49  VRB3    30.09S
#BATTLE MTN DOT N/A         54  44  69  N1      N/A
#CUTSFORTH PARK N/A         54  42  64  CALM    29.86S
#GREENHORN 9SW  N/A         58  45  62  NW1     26.26S
#HARDMAN 10S    N/A         61  34  36  N5      30.22S
#HEPPNER 15SE   N/A         56  42  59  W2      25.61R
#LADD CYN SMT   N/A         61  33  35  NW6     N/A
#LADD CREEK ODOTN/A         64  38  38  NE8     N/A
#LONG CREEK HS  N/A         57  46  67  CALM    N/A
#N POWDER DOT   N/A         63  40  43  NE8     N/A
#PIKES PEAK     N/A         54  44  69  SW15    27.99S
#TOLLGATE       N/A         50  43  77  S2      29.96R
#TROY SCHOOL    N/A         66  51  58  E2      29.85S
#UKIAH          N/A         60  45  58  NE5     29.96S
#WESTON 4E      N/A         59  46  62  SW7     30.00S
$$

ORZ505-252010-
JOHN DAY BASIN

CITY            SKY/WX      TMP DP  RH  WIND    PRES   REMARKS
JOHN DAY        PTCLDY      N/A N/A N/A MISG    N/A
#MITCHELL       N/A         61  48  62  NW1     30.23S
#MITCHELL 8NW   N/A         59  42  53  S1      30.24F
#MONUMENT HS    N/A         66  40  38  SW7     30.00S
#MT. VERNON 5SE N/A         56  41  57  NW5     30.04F
#SPRAY SCHOOL   N/A         69  N/A N/A CALM    N/A
#WINLOCK        N/A         60  43  53  E2      30.04S
$$

ORZ506-252010-
OCHOCO AND JOHN DAY HIGHLANDS

CITY            SKY/WX      TMP DP  RH  WIND    PRES   REMARKS
#HORSE RIDGE DO N/A         53  37  54  NW8     N/A
#KEYES SMT DOT  N/A         55  39  55  N7      N/A
#PAULINA SCHOOL N/A         59  38  45  NW5     N/A
#PINE MTN OBS   N/A         43  38  82  NW1     N/A
#PRAIRIE CITY   N/A         62  48  60  SW2     30.22S
#SENECA         N/A         55  N/A N/A NW5     N/A
#SENECA 9NW     N/A         53  43  69  CALM    30.01F
$$

ORZ049-252010-
GRANDE RONDE VALLEY

CITY            SKY/WX      TMP DP  RH  WIND    PRES   REMARKS
LA GRANDE       MOCLDY      64  37  37  N7      30.04S
#COVE           N/A         64  52  65  N2      30.07S
#COVE SCHOOL    N/A         65  46  50  W2      30.06F
#COVE 6NW       N/A         64  45  50  W1      29.92F
#ELGIN 3N       N/A         62  43  50  W1      30.02R
#ELGIN 1E       N/A         63  46  54  CALM    N/A
#IMBLER SCHOOL  N/A         61  44  53  NW5     30.00
#ISLAND CITY 4N N/A         61  52  72  CALM    30.17S
#LADD CYN DOT   N/A         66  42  42  N6      N/A
#UNION 1S       N/A         66  46  48  SW3     29.91S
$$

ORZ050-252010-
WALLOWA COUNTY

CITY            SKY/WX      TMP DP  RH  WIND    PRES   REMARKS
#ENTERPRISE AP  N/A         49  29  46  CALM    29.99S
#ENTERPRISE HS  N/A         59  45  60  CALM    30.06S
#IMNAHA SCHOOL  N/A         62  47  58  N2      30.02S
#IMNAHA 10S     N/A         61  47  60  NE2     30.02S
#JOSEPH 3N      N/A         57  43  59  NW5     30.08S
#JOSEPH 3W      N/A         55  45  69  E5      29.91R
#LOSTINE        N/A         60  48  64  CALM    29.84F
#LOSTINE 3SE    N/A         58  45  62  NE3     30.05S
#MT HOWARD 8000 N/A         38  34  85  N1      30.13R
#PROMISE 1S     N/A         58  47  67  CALM    30.13R
#WALLOWA SCHOOL N/A         63  40  43  CALM    30.01S



$$



USA.gov is the U.S. government's official web portal to all federal, state and local government web resources and services.